DW1521 Ihtiman BG current weather conditions

sailwx.info

Wind from 264 at 7 knots gusting 12

Air temperature 25.0° C
Dewpoint 13.8° C

Last reported at 2020-Aug-05 13:01 UTC.
Time now 2020-Aug-05 13:54 UTC

Location: N 42°26' E 023°49'.
View on Google Maps.

See reports from other nearby stations

  
Tides and Currents Weather Stations Pressure Air Temp Water Temp Dewpoint Dewpoint Depression Visibility Wind Speed Wind Dir Waves Ship Positions
date/time (UTC)wind fromknots sea level pressurealtimeterstation pressurevisibilityair tempwater tempwave heightnotes
2020-Aug-05 13:01 264 7 gusting 12 25.0
2020-Aug-05 12:51 245 2 gusting 5 26.1
2020-Aug-05 12:41 148 5 gusting 8 26.7
2020-Aug-05 12:36 168 5 gusting 10 26.7
2020-Aug-05 12:31 122 4 gusting 6 26.1
2020-Aug-05 12:21 161 5 gusting 8 26.7
2020-Aug-05 12:16 157 6 gusting 11 26.7
2020-Aug-05 12:01 133 6 gusting 10 25.6
2020-Aug-05 11:51 132 7 gusting 8 27.8
2020-Aug-05 11:41 171 6 gusting 10 29.4
2020-Aug-05 11:36 092 5 gusting 8 29.4
2020-Aug-05 11:31 158 6 gusting 13 28.9
2020-Aug-05 11:21 138 6 gusting 7 27.8
2020-Aug-05 11:11 159 6 gusting 8 27.2
2020-Aug-05 11:01 145 6 gusting 13 26.7
2020-Aug-05 10:51 149 6 gusting 11 26.7
2020-Aug-05 10:36 107 6 gusting 8 27.2
2020-Aug-05 10:31 161 5 gusting 11 26.7
2020-Aug-05 10:26 120 6 gusting 11 27.2
2020-Aug-05 10:21 148 5 gusting 11 27.2
2020-Aug-05 10:16 162 5 gusting 8 27.2
2020-Aug-05 10:06 115 5 gusting 10 26.7
2020-Aug-05 09:51 082 3 gusting 8 25.6
2020-Aug-05 09:46 110 5 gusting 8 25.6
2020-Aug-05 09:31 126 5 gusting 7 25.6
2020-Aug-05 09:26 129 6 gusting 11 26.1
2020-Aug-05 09:16 153 6 gusting 6 26.1
2020-Aug-05 09:06 147 3 gusting 5 25.6
2020-Aug-05 09:01 163 2 gusting 6 25.6
2020-Aug-05 08:56 158 5 gusting 7 25.0
2020-Aug-05 08:51 116 4 gusting 6 25.0
2020-Aug-05 08:31 137 3 gusting 6 24.4
2020-Aug-05 08:26 135 4 gusting 6 24.4
2020-Aug-05 08:21 068 1 gusting 7 23.9
2020-Aug-05 08:16 128 4 gusting 10 23.9
2020-Aug-05 08:11 121 5 gusting 7 24.4
2020-Aug-05 08:06 145 4 gusting 6 23.9
2020-Aug-05 08:01 112 3 gusting 5 23.9
2020-Aug-05 07:56 100 4 gusting 6 23.9
2020-Aug-05 07:41 147 2 gusting 6 23.9
2020-Aug-05 07:36 143 2 gusting 5 23.9
2020-Aug-05 07:31 150 3 gusting 5 23.9
2020-Aug-05 07:21 109 4 gusting 6 23.9
2020-Aug-05 07:16 124 6 gusting 10 23.3
2020-Aug-05 07:01 121 4 gusting 6 22.8
2020-Aug-05 06:56 163 5 gusting 6 22.8
2020-Aug-05 06:51 125 3 gusting 7 22.8
2020-Aug-05 06:31 163 0 gusting 6 21.7
2020-Aug-05 06:26 172 0 gusting 4 21.7
2020-Aug-05 06:16 166 2 gusting 5 21.1
2020-Aug-05 06:01 191 2 gusting 2 20.0
2020-Aug-05 05:56 133 1 gusting 5 20.0
2020-Aug-05 05:51 159 3 gusting 5 19.4
2020-Aug-05 05:41 145 2 gusting 5 18.9
2020-Aug-05 05:36 172 1 gusting 2 17.8
2020-Aug-05 05:26 009 17.8
2020-Aug-05 05:21 009 17.2
2020-Aug-05 05:11 009 17.2
2020-Aug-05 05:06 009 16.7
2020-Aug-05 04:56 009 16.7
2020-Aug-05 04:51 009 16.7
2020-Aug-05 04:41 009 0 gusting 2 16.1
2020-Aug-05 04:36 292 16.1
2020-Aug-05 04:31 261 1 gusting 4 16.7
2020-Aug-05 04:26 188 2 gusting 4 16.7
2020-Aug-05 04:11 120 16.7
2020-Aug-05 03:56 134 2 gusting 5 17.2
2020-Aug-05 03:41 127 1 gusting 5 17.2
2020-Aug-05 03:36 138 2 gusting 2 16.7
2020-Aug-05 03:31 138 1 gusting 2 16.7
2020-Aug-05 03:26 140 2 gusting 4 16.7
2020-Aug-05 03:21 126 2 gusting 5 16.7
2020-Aug-05 03:16 126 0 gusting 5 16.7
2020-Aug-05 03:11 138 1 gusting 2 16.7
2020-Aug-05 03:06 156 16.7
2020-Aug-05 03:01 156 1 gusting 2 16.7
2020-Aug-05 02:56 157 0 gusting 2 16.7
2020-Aug-05 02:51 121 16.7
2020-Aug-05 02:46 122 17.2
2020-Aug-05 02:36 144 2 gusting 5 17.2
2020-Aug-05 02:26 126 3 gusting 5 17.2
2020-Aug-05 02:21 129 2 gusting 5 17.2
2020-Aug-05 02:11 155 0 gusting 2 17.2
2020-Aug-05 02:06 159 0 gusting 2 17.2
2020-Aug-05 02:01 160 1 gusting 2 17.2
2020-Aug-05 01:46 175 0 gusting 5 17.2
2020-Aug-05 01:41 175 1 gusting 4 17.2
2020-Aug-05 01:36 173 1 gusting 4 17.8
2020-Aug-05 01:31 162 2 gusting 5 17.2
2020-Aug-05 01:06 172 0 gusting 2 17.8
2020-Aug-05 01:01 169 17.8
2020-Aug-05 00:56 169 17.8
2020-Aug-05 00:46 164 1 gusting 4 17.8
2020-Aug-05 00:41 167 0 gusting 2 18.3
2020-Aug-05 00:36 157 0 gusting 4 18.3
2020-Aug-05 00:31 128 2 gusting 5 18.3
2020-Aug-05 00:26 133 2 gusting 5 18.3
2020-Aug-05 00:16 132 2 gusting 4 18.3
2020-Aug-05 00:01 154 3 gusting 5 18.9
2020-Aug-04 23:46 171 3 gusting 5 19.4
2020-Aug-04 23:41 145 2 gusting 5 19.4
2020-Aug-04 23:26 129 2 gusting 4 19.4
2020-Aug-04 23:21 169 2 gusting 5 20.0
2020-Aug-04 23:16 117 2 gusting 6 20.0
2020-Aug-04 23:06 173 2 gusting 5 20.6
2020-Aug-04 22:41 158 3 gusting 6 20.6
2020-Aug-04 22:36 163 2 gusting 5 21.1
2020-Aug-04 22:26 161 2 gusting 7 21.1
2020-Aug-04 22:21 156 4 gusting 6 21.1
2020-Aug-04 22:16 178 3 gusting 7 21.7
2020-Aug-04 22:06 163 5 gusting 6 21.7
2020-Aug-04 22:01 119 4 gusting 7 21.7
2020-Aug-04 21:51 134 5 gusting 10 22.2
2020-Aug-04 21:46 134 6 gusting 11 22.2
2020-Aug-04 21:41 143 7 gusting 14 22.2
2020-Aug-04 21:36 122 6 gusting 10 22.2
2020-Aug-04 21:31 141 5 gusting 8 22.2
2020-Aug-04 21:21 139 6 gusting 12 22.8
2020-Aug-04 21:11 150 5 gusting 7 22.8
2020-Aug-04 21:06 168 6 gusting 11 22.8
2020-Aug-04 20:56 148 5 gusting 6 21.7
2020-Aug-04 20:51 175 0 gusting 5 21.1
2020-Aug-04 20:46 138 2 gusting 4 21.7
2020-Aug-04 20:41 114 1 gusting 2 21.7
2020-Aug-04 20:26 220 2 gusting 4 21.7
2020-Aug-04 20:16 231 21.1
2020-Aug-04 20:11 232 21.1
2020-Aug-04 20:06 232 0 gusting 2 21.1
2020-Aug-04 20:01 233 2 gusting 5 21.1
2020-Aug-04 19:56 252 0 gusting 2 21.1
2020-Aug-04 19:46 254 1 gusting 2 21.1
2020-Aug-04 19:41 255 21.1
2020-Aug-04 19:31 255 1 gusting 2 22.2
2020-Aug-04 19:16 041 0 gusting 2 22.2
2020-Aug-04 19:11 280 0 gusting 2 22.2
2020-Aug-04 19:01 239 22.8
2020-Aug-04 18:56 238 22.8
2020-Aug-04 18:51 238 2 gusting 5 22.8
2020-Aug-04 18:46 239 2 gusting 5 23.3
2020-Aug-04 18:41 207 0 gusting 2 23.3
2020-Aug-04 18:36 183 23.3
2020-Aug-04 18:31 184 1 gusting 2 23.3
2020-Aug-04 18:26 183 2 gusting 2 23.9
2020-Aug-04 18:11 126 0 gusting 5 24.4
2020-Aug-04 18:06 146 1 gusting 2 24.4
2020-Aug-04 18:01 141 24.4
2020-Aug-04 17:56 122 2 gusting 2 24.4
2020-Aug-04 17:46 142 1 gusting 2 24.4
2020-Aug-04 17:36 147 1 gusting 2 25.0
2020-Aug-04 17:31 137 2 gusting 4 25.6
2020-Aug-04 17:16 159 2 gusting 5 26.1
2020-Aug-04 17:06 188 2 gusting 5 26.1
2020-Aug-04 17:01 135 3 gusting 5 26.1
2020-Aug-04 16:46 125 4 gusting 6 27.8
2020-Aug-04 16:41 133 3 gusting 6 27.8
2020-Aug-04 16:31 136 4 gusting 6 27.8
2020-Aug-04 16:26 130 1 gusting 5 27.8
2020-Aug-04 16:21 184 3 gusting 6 27.8
2020-Aug-04 16:16 143 3 gusting 6 27.8
2020-Aug-04 16:11 122 2 gusting 5 28.3
2020-Aug-04 16:06 146 5 gusting 6 28.3
2020-Aug-04 16:01 162 4 gusting 10 28.9
2020-Aug-04 15:56 161 5 gusting 8 28.9
2020-Aug-04 15:51 147 4 gusting 8 28.3
2020-Aug-04 15:46 122 4 gusting 6 28.3
2020-Aug-04 15:41 142 5 gusting 6 28.9
2020-Aug-04 15:36 141 6 gusting 7 28.9
2020-Aug-04 15:31 136 4 gusting 6 28.3
2020-Aug-04 15:21 141 5 gusting 8 27.8
2020-Aug-04 15:16 129 4 gusting 6 28.9
2020-Aug-04 15:11 141 6 gusting 7 29.4
2020-Aug-04 15:01 124 5 gusting 7 29.4
2020-Aug-04 14:56 126 6 gusting 7 30.0
2020-Aug-04 14:51 151 5 gusting 7 30.6
2020-Aug-04 14:46 148 4 gusting 11 30.6
2020-Aug-04 14:41 161 5 gusting 7 30.6
2020-Aug-04 14:36 163 5 gusting 7 30.6
2020-Aug-04 14:31 163 6 gusting 10 30.6
2020-Aug-04 14:26 172 4 gusting 6 30.6
2020-Aug-04 14:21 104 3 gusting 5 30.6
2020-Aug-04 14:11 161 5 gusting 10 30.0
2020-Aug-04 14:06 167 6 gusting 10 30.6
2020-Aug-04 13:51 160 4 gusting 7 31.7
2020-Aug-04 13:46 167 4 gusting 6 31.7
2020-Aug-04 13:41 117 5 gusting 7 31.7
2020-Aug-04 13:36 178 4 gusting 7 31.1
2020-Aug-04 13:31 100 5 gusting 8 31.1
2020-Aug-04 13:16 121 5 gusting 8 31.1
2020-Aug-04 13:11 173 2 gusting 6 31.7
2020-Aug-04 13:01 123 4 gusting 8 31.1
2020-Aug-04 12:56 124 6 gusting 10 31.1
2020-Aug-04 12:51 150 2 gusting 5 31.1
2020-Aug-04 12:46 069 4 gusting 6 31.1
2020-Aug-04 12:21 108 4 gusting 7 31.1
2020-Aug-04 12:16 165 3 gusting 5 31.7
2020-Aug-04 12:11 134 4 gusting 7 32.2
2020-Aug-04 12:06 166 4 gusting 6 31.7
2020-Aug-04 12:01 169 5 gusting 6 31.1
2020-Aug-04 11:56 158 2 gusting 5 31.1
2020-Aug-04 11:46 181 3 gusting 7 30.0
2020-Aug-04 11:41 082 2 gusting 7 30.6
2020-Aug-04 11:26 172 4 gusting 7 30.0
2020-Aug-04 11:16 154 5 gusting 6 29.4
2020-Aug-04 11:06 115 5 gusting 6 28.9
2020-Aug-04 11:01 133 5 gusting 7 28.9
2020-Aug-04 10:56 064 3 gusting 6 28.3
2020-Aug-04 10:51 151 4 gusting 10 28.3
2020-Aug-04 10:46 153 2 gusting 6 28.3
2020-Aug-04 10:41 153 2 gusting 6 27.8
2020-Aug-04 10:31 156 5 gusting 7 27.8
2020-Aug-04 10:26 146 3 gusting 5 27.8
2020-Aug-04 10:16 124 2 gusting 6 27.2
2020-Aug-04 10:11 080 4 gusting 6 27.2
2020-Aug-04 10:06 107 4 gusting 6 27.2
2020-Aug-04 10:01 098 4 gusting 6 27.2
2020-Aug-04 09:51 165 2 gusting 6 26.1
2020-Aug-04 09:46 129 5 gusting 7 26.1
2020-Aug-04 09:41 132 2 gusting 5 26.1
2020-Aug-04 09:36 120 5 gusting 7 25.6
2020-Aug-04 09:31 148 2 gusting 7 25.6
2020-Aug-04 09:26 128 4 gusting 7 26.1
2020-Aug-04 09:21 124 2 gusting 5 26.1
2020-Aug-04 09:11 085 2 gusting 6 26.1
2020-Aug-04 09:06 153 1 gusting 6 25.0
2020-Aug-04 08:56 121 2 gusting 5 24.4
2020-Aug-04 08:51 193 2 gusting 6 23.9
2020-Aug-04 08:46 125 5 gusting 6 23.9
2020-Aug-04 08:41 108 4 gusting 6 23.9
2020-Aug-04 08:36 118 4 gusting 6 23.9
2020-Aug-04 08:31 139 4 gusting 6 23.9
2020-Aug-04 08:16 071 4 gusting 8 23.3
2020-Aug-04 08:11 132 3 gusting 6 23.9
2020-Aug-04 08:06 142 3 gusting 7 23.9
2020-Aug-04 08:01 124 4 gusting 7 23.9
2020-Aug-04 07:56 146 4 gusting 7 23.3
2020-Aug-04 07:46 153 1 gusting 6 23.9
2020-Aug-04 07:36 054 1 gusting 5 23.9
2020-Aug-04 07:31 073 2 gusting 5 23.9
2020-Aug-04 07:21 062 4 gusting 5 23.3
2020-Aug-04 07:16 181 3 gusting 6 23.3
2020-Aug-04 07:11 140 3 gusting 6 22.8
2020-Aug-04 07:01 119 2 gusting 5 22.8
2020-Aug-04 06:51 120 2 gusting 5 22.2
2020-Aug-04 06:46 164 0 gusting 2 22.2
2020-Aug-04 06:41 114 2 gusting 5 21.7
2020-Aug-04 06:36 193 3 gusting 6 21.7
2020-Aug-04 06:31 164 2 gusting 5 21.1
2020-Aug-04 06:21 170 4 gusting 6 20.6
2020-Aug-04 06:16 169 4 gusting 6 20.6
2020-Aug-04 06:11 159 3 gusting 6 20.6
2020-Aug-04 06:06 177 3 gusting 5 20.6
2020-Aug-04 06:01 178 3 gusting 6 20.0
2020-Aug-04 05:56 151 4 gusting 5 20.0
2020-Aug-04 05:46 181 2 gusting 5 19.4
2020-Aug-04 05:41 169 4 gusting 5 18.9
2020-Aug-04 05:36 172 3 gusting 5 18.9
2020-Aug-04 05:26 172 1 gusting 5 17.8
2020-Aug-04 05:16 126 2 gusting 5 17.2
2020-Aug-04 05:11 178 2 gusting 5 17.2
2020-Aug-04 05:06 161 2 gusting 4 16.7
2020-Aug-04 05:01 147 1 gusting 5 16.7
2020-Aug-04 04:46 126 1 gusting 4 16.1
2020-Aug-04 04:41 141 1 gusting 2 15.6
2020-Aug-04 04:36 155 1 gusting 2 15.6
2020-Aug-04 04:21 157 0 gusting 2 15.0
2020-Aug-04 04:16 157 1 gusting 1 15.0
2020-Aug-04 04:11 157 1 gusting 2 15.6
2020-Aug-04 04:06 136 15.6
2020-Aug-04 03:56 141 15.6
2020-Aug-04 03:51 141 15.6
2020-Aug-04 03:41 120 15.0
2020-Aug-04 03:36 120 15.0
2020-Aug-04 03:26 120 15.6
2020-Aug-04 03:16 143 15.6
2020-Aug-04 03:11 143 15.6
2020-Aug-04 03:06 143 15.6
2020-Aug-04 03:01 133 2 gusting 2 15.6
2020-Aug-04 02:56 147 2 gusting 2 15.6
2020-Aug-04 02:51 129 2 gusting 2 15.6
2020-Aug-04 02:46 130 2 gusting 4 15.6
2020-Aug-04 02:36 190 15.6
2020-Aug-04 02:31 190 1 gusting 2 15.6
2020-Aug-04 02:21 166 15.6
2020-Aug-04 02:11 162 15.6
2020-Aug-04 02:06 162 1 gusting 2 15.6
2020-Aug-04 01:51 119 0 gusting 2 16.1
2020-Aug-04 01:46 125 1 gusting 2 16.1
2020-Aug-04 01:36 141 1 gusting 2 16.1
2020-Aug-04 01:31 165 16.7
2020-Aug-04 01:26 165 16.7
2020-Aug-04 01:21 173 1 gusting 2 16.7
2020-Aug-04 01:11 131 0 gusting 2 16.7
2020-Aug-04 01:06 158 1 gusting 5 16.7
2020-Aug-04 00:56 130 4 gusting 5 16.7
2020-Aug-04 00:51 180 1 gusting 2 16.7
2020-Aug-04 00:41 172 0 gusting 2 17.2
2020-Aug-04 00:26 140 1 gusting 2 17.8
2020-Aug-04 00:21 175 1 gusting 2 17.8
2020-Aug-04 00:16 160 4 gusting 5 17.8
2020-Aug-04 00:06 174 2 gusting 5 17.8
2020-Aug-03 23:51 169 2 gusting 5 17.8
2020-Aug-03 23:41 176 2 gusting 6 18.3
2020-Aug-03 23:31 141 2 gusting 5 18.3
2020-Aug-03 23:26 179 2 gusting 4 18.3
2020-Aug-03 23:16 175 3 gusting 5 18.9
2020-Aug-03 23:11 119 3 gusting 5 18.9
2020-Aug-03 23:06 167 2 gusting 5 18.9
2020-Aug-03 22:56 174 3 gusting 5 19.4
2020-Aug-03 22:51 177 5 gusting 6 19.4
2020-Aug-03 22:46 170 3 gusting 6 19.4
2020-Aug-03 22:41 122 0 gusting 2 19.4
2020-Aug-03 22:36 140 3 gusting 5 19.4
2020-Aug-03 22:26 081 3 gusting 5 19.4
2020-Aug-03 22:21 171 2 gusting 6 19.4
2020-Aug-03 22:11 169 3 gusting 5 20.0
2020-Aug-03 22:06 161 4 gusting 6 20.0
2020-Aug-03 21:51 171 5 gusting 8 20.6
2020-Aug-03 21:46 162 3 gusting 6 20.6
2020-Aug-03 21:41 164 4 gusting 7 20.6
2020-Aug-03 21:36 162 5 gusting 7 20.6
2020-Aug-03 21:26 145 5 gusting 6 21.1
2020-Aug-03 21:21 139 6 gusting 7 21.1
2020-Aug-03 21:16 120 5 gusting 8 21.1
2020-Aug-03 21:11 140 4 gusting 7 21.1
2020-Aug-03 21:06 116 6 gusting 10 21.7
2020-Aug-03 21:01 132 5 gusting 11 21.7
2020-Aug-03 20:51 151 5 gusting 8 21.7
2020-Aug-03 20:46 130 4 gusting 7 21.7
2020-Aug-03 20:41 142 4 gusting 7 22.2
2020-Aug-03 20:36 122 7 gusting 12 22.2
2020-Aug-03 20:31 116 5 gusting 11 22.2
2020-Aug-03 20:26 125 6 gusting 13 22.2
2020-Aug-03 20:16 113 7 gusting 11 22.2
2020-Aug-03 20:11 125 4 gusting 7 22.8
2020-Aug-03 20:06 146 5 gusting 7 22.8
2020-Aug-03 20:01 116 6 gusting 10 22.8
2020-Aug-03 19:46 133 6 gusting 8 22.8
2020-Aug-03 19:41 125 6 gusting 8 22.8
2020-Aug-03 19:36 138 6 gusting 7 22.8
2020-Aug-03 19:31 139 5 gusting 8 22.2
2020-Aug-03 19:26 136 4 gusting 6 22.2
2020-Aug-03 19:21 117 3 gusting 6 21.7
2020-Aug-03 19:16 160 2 gusting 5 21.7
2020-Aug-03 19:06 167 2 gusting 5 22.2
2020-Aug-03 18:51 136 1 gusting 2 22.2
2020-Aug-03 18:46 113 22.2
2020-Aug-03 18:41 140 0 gusting 2 22.8
2020-Aug-03 18:36 144 1 gusting 2 22.8
2020-Aug-03 18:31 114 1 gusting 2 22.8
2020-Aug-03 18:26 085 0 gusting 2 22.8
2020-Aug-03 18:21 136 2 gusting 2 22.8
2020-Aug-03 18:16 135 2 gusting 4 22.8
2020-Aug-03 18:11 132 23.3
2020-Aug-03 18:06 122 1 gusting 5 23.3
2020-Aug-03 18:01 142 2 gusting 4 23.3
2020-Aug-03 17:56 131 2 gusting 4 23.3
2020-Aug-03 17:51 149 0 gusting 2 23.3
2020-Aug-03 17:46 143 1 gusting 2 23.9
2020-Aug-03 17:36 143 1 gusting 2 23.9
2020-Aug-03 17:31 131 2 gusting 5 24.4
2020-Aug-03 17:21 129 2 gusting 5 24.4
2020-Aug-03 17:11 160 1 gusting 2 25.0
2020-Aug-03 17:06 174 2 gusting 5 25.0
2020-Aug-03 17:01 163 1 gusting 5 25.0
2020-Aug-03 16:56 162 4 gusting 5 25.6
2020-Aug-03 16:51 189 3 gusting 6 25.6
2020-Aug-03 16:46 167 4 gusting 7 25.6
2020-Aug-03 16:41 170 4 gusting 6 26.1
2020-Aug-03 16:26 151 4 gusting 8 26.7
2020-Aug-03 16:16 166 6 gusting 6 27.2
2020-Aug-03 16:01 170 4 gusting 6 27.8
2020-Aug-03 15:56 128 3 gusting 8 28.3
2020-Aug-03 15:41 119 5 gusting 6 28.3
2020-Aug-03 15:36 125 3 gusting 5 28.3
2020-Aug-03 15:31 145 3 gusting 6 28.3
2020-Aug-03 15:26 144 5 gusting 7 28.3
2020-Aug-03 15:16 134 4 gusting 5 28.9
2020-Aug-03 15:11 111 3 gusting 6 28.3
2020-Aug-03 15:06 121 5 gusting 7 28.3
2020-Aug-03 15:01 125 5 gusting 8 28.9
2020-Aug-03 14:51 101 4 gusting 8 29.4
2020-Aug-03 14:36 121 4 gusting 6 30.0
2020-Aug-03 14:31 184 2 gusting 5 30.6
2020-Aug-03 14:26 162 3 gusting 5 30.0
2020-Aug-03 14:16 123 2 gusting 6 30.6
2020-Aug-03 14:11 195 5 gusting 6 31.1
2020-Aug-03 14:01 148 5 gusting 6 30.6
2020-Aug-03 13:46 138 2 gusting 6 30.6
2020-Aug-03 13:36 169 5 gusting 11 30.6
2020-Aug-03 13:31 188 0 gusting 5 30.6
2020-Aug-03 13:26 149 2 gusting 5 30.6
2020-Aug-03 13:21 356 0 gusting 5 30.0
2020-Aug-03 13:16 157 4 gusting 8 30.0
2020-Aug-03 13:06 138 2 gusting 4 30.6
2020-Aug-03 13:01 132 4 gusting 5 30.0